• In Kazakhstan
  • List of Countries
  • For 7 days
  • Water Temperature
  • Satellite Maps
  • Weather Map
  • News
  • Weather Widgets
  • user-avatar
    Login

    Hourly Weather Ballalpur

    Today, 25 November, Saturday

    Time Temperature Precipitation Wind Pressure Humidity
    00:00 +21°C° 0 mm 1 mps 745 mmHg 60%
    01:00 +21°C° 0 mm 1 mps 745 mmHg 59%
    02:00 +20°C° 0 mm 1 mps 745 mmHg 58%
    03:00 +20°C° 0 mm 1 mps 745 mmHg 57%
    04:00 +19°C° 0 mm 1 mps 745 mmHg 56%
    05:00 +19°C° 0 mm 1 mps 745 mmHg 56%
    06:00 +20°C° 0 mm 1 mps 745 mmHg 53%
    07:00 +21°C° 0 mm 1 mps 746 mmHg 50%
    08:00 +23°C° 0 mm 1 mps 746 mmHg 47%
    09:00 +25°C° 0 mm 1 mps 746 mmHg 42%
    10:00 +28°C° 0 mm 2 mps 746 mmHg 38%
    11:00 +30°C° 0 mm 2 mps 746 mmHg 33%
    12:00 +31°C° 0 mm 2 mps 745 mmHg 31%
    13:00 +31°C° 0 mm 2 mps 745 mmHg 29%
    14:00 +32°C° 0 mm 2 mps 744 mmHg 26%
    15:00 +30°C° 0 mm 2 mps 744 mmHg 30%
    16:00 +28°C° 0 mm 2 mps 744 mmHg 35%
    17:00 +26°C° 0 mm 2 mps 744 mmHg 39%
    18:00 +25°C° 0 mm 2 mps 744 mmHg 39%
    19:00 +24°C° 0 mm 2 mps 745 mmHg 39%
    20:00 +23°C° 0 mm 2 mps 745 mmHg 39%
    21:00 +21°C° 0 mm 2 mps 745 mmHg 40%
    22:00 +22°C° 0 mm 1 mps 745 mmHg 40%
    23:00 +21°C° 0 mm 1 mps 746 mmHg 40%

    Tomorrow, 26 November, Sunday

    Time Temperature Precipitation Wind Pressure Humidity
    00:00 +20°C° 0 mm 1 mps 745 mmHg 41%
    01:00 +20°C° 0 mm 1 mps 745 mmHg 42%
    02:00 +19°C° 0 mm 1 mps 745 mmHg 42%
    03:00 +19°C° 0 mm 1 mps 745 mmHg 43%
    04:00 +19°C° 0 mm 1 mps 745 mmHg 43%
    05:00 +18°C° 0 mm 1 mps 745 mmHg 43%
    06:00 +20°C° 0 mm 1 mps 746 mmHg 42%
    07:00 +21°C° 0 mm 1 mps 746 mmHg 41%
    08:00 +22°C° 0 mm 1 mps 747 mmHg 40%
    09:00 +25°C° 0 mm 2 mps 747 mmHg 36%
    10:00 +27°C° 0 mm 2 mps 747 mmHg 31%
    11:00 +30°C° 0 mm 2 mps 746 mmHg 27%
    12:00 +30°C° 0 mm 2 mps 746 mmHg 26%
    13:00 +31°C° 0 mm 2 mps 745 mmHg 24%
    14:00 +32°C° 0 mm 2 mps 744 mmHg 22%
    15:00 +30°C° 0 mm 1 mps 744 mmHg 26%
    16:00 +28°C° 0 mm 1 mps 744 mmHg 30%
    17:00 +26°C° 0 mm 1 mps 744 mmHg 34%
    18:00 +25°C° 0 mm 1 mps 744 mmHg 35%
    19:00 +24°C° 0 mm 1 mps 745 mmHg 36%
    20:00 +23°C° 0 mm 1 mps 745 mmHg 36%
    21:00 +22°C° 0 mm 1 mps 745 mmHg 37%
    22:00 +21°C° 0 mm 1 mps 745 mmHg 39%
    23:00 +21°C° 0 mm 1 mps 745 mmHg 40%

    Day after tomorrow, 27 November, Monday

    Time Temperature Precipitation Wind Pressure Humidity
    00:00 +20°C° 0 mm 1 mps 745 mmHg 41%
    01:00 +20°C° 0 mm 1 mps 745 mmHg 42%
    02:00 +20°C° 0 mm 1 mps 744 mmHg 43%
    03:00 +19°C° 0 mm 1 mps 744 mmHg 44%
    04:00 +19°C° 0 mm 1 mps 744 mmHg 45%
    05:00 +18°C° 0 mm 1 mps 744 mmHg 47%
    06:00 +20°C° 0 mm 1 mps 745 mmHg 45%
    07:00 +21°C° 0 mm 1 mps 746 mmHg 44%
    08:00 +22°C° 0 mm 1 mps 746 mmHg 42%
    09:00 +25°C° 0 mm 1 mps 746 mmHg 38%
    10:00 +27°C° 0 mm 1 mps 746 mmHg 34%
    11:00 +30°C° 0 mm 1 mps 746 mmHg 30%
    12:00 +30°C° 0 mm 1 mps 745 mmHg 28%
    13:00 +31°C° 0 mm 1 mps 744 mmHg 26%
    14:00 +32°C° 0 mm 1 mps 743 mmHg 25%
    15:00 +30°C° 0 mm 1 mps 743 mmHg 29%
    16:00 +28°C° 0 mm 1 mps 743 mmHg 33%
    17:00 +26°C° 0 mm 1 mps 743 mmHg 37%
    18:00 +25°C° 0 mm 1 mps 743 mmHg 38%
    19:00 +24°C° 0 mm 1 mps 744 mmHg 39%
    20:00 +23°C° 0 mm 1 mps 744 mmHg 40%
    21:00 +22°C° 0 mm 1 mps 744 mmHg 41%
    22:00 +22°C° 0 mm 1 mps 744 mmHg 42%
    23:00 +21°C° 0 mm 1 mps 744 mmHg 43%

    28 November, Tuesday

    Time Temperature Precipitation Wind Pressure Humidity
    00:00 +21°C° 0 mm 1 mps 744 mmHg 44%
    01:00 +20°C° 0 mm 1 mps 744 mmHg 45%
    02:00 +19°C° 0 mm 1 mps 743 mmHg 46%
    03:00 +19°C° 0 mm 1 mps 743 mmHg 47%
    04:00 +19°C° 0 mm 1 mps 743 mmHg 47%
    05:00 +18°C° 0 mm 1 mps 744 mmHg 48%
    06:00 +20°C° 0 mm 1 mps 744 mmHg 46%
    07:00 +21°C° 0 mm 1 mps 745 mmHg 44%
    08:00 +23°C° 0 mm 1 mps 746 mmHg 41%
    09:00 +25°C° 0 mm 1 mps 746 mmHg 37%
    10:00 +28°C° 0 mm 1 mps 745 mmHg 33%
    11:00 +30°C° 0 mm 1 mps 745 mmHg 28%
    12:00 +31°C° 0 mm 1 mps 744 mmHg 27%
    13:00 +32°C° 0 mm 1 mps 743 mmHg 26%
    14:00 +32°C° 0 mm 1 mps 743 mmHg 24%
    15:00 +30°C° 0 mm 1 mps 743 mmHg 28%
    16:00 +28°C° 0 mm 1 mps 743 mmHg 32%
    17:00 +26°C° 0 mm 1 mps 743 mmHg 37%
    18:00 +25°C° 0 mm 1 mps 743 mmHg 37%
    19:00 +24°C° 0 mm 1 mps 744 mmHg 38%
    20:00 +23°C° 0 mm 1 mps 744 mmHg 39%
    21:00 +22°C° 0 mm 1 mps 744 mmHg 40%
    22:00 +22°C° 0 mm 1 mps 744 mmHg 40%
    23:00 +21°C° 0 mm 1 mps 744 mmHg 41%

    29 November, Wednesday

    Time Temperature Precipitation Wind Pressure Humidity
    00:00 +20°C° 0 mm 1 mps 744 mmHg 42%
    01:00 +20°C° 0 mm 1 mps 744 mmHg 43%
    02:00 +19°C° 0 mm 1 mps 744 mmHg 44%
    03:00 +19°C° 0 mm 1 mps 744 mmHg 45%
    04:00 +19°C° 0 mm 1 mps 744 mmHg 46%
    05:00 +18°C° 0 mm 1 mps 745 mmHg 47%
    06:00 +20°C° 0 mm 1 mps 745 mmHg 46%
    07:00 +21°C° 0 mm 1 mps 746 mmHg 45%
    08:00 +23°C° 0 mm 1 mps 747 mmHg 43%
    09:00 +26°C° 0 mm 1 mps 747 mmHg 39%
    10:00 +28°C° 0 mm 1 mps 746 mmHg 35%
    11:00 +31°C° 0 mm 1 mps 746 mmHg 31%
    12:00 +32°C° 0 mm 1 mps 745 mmHg 30%
    13:00 +32°C° 0 mm 1 mps 744 mmHg 28%
    14:00 +33°C° 0 mm 1 mps 744 mmHg 26%
    15:00 +31°C° 0 mm 1 mps 744 mmHg 30%
    16:00 +28°C° 0 mm 1 mps 744 mmHg 34%
    17:00 +26°C° 0 mm 1 mps 744 mmHg 39%
    18:00 +25°C° 0 mm 1 mps 744 mmHg 40%
    19:00 +24°C° 0 mm 1 mps 745 mmHg 42%
    20:00 +23°C° 0 mm 1 mps 745 mmHg 43%
    21:00 +23°C° 0 mm 1 mps 745 mmHg 44%
    22:00 +20°C° 0 mm 0 mps 745 mmHg 46%
    23:00 +19°C° 0 mm 0 mps 745 mmHg 47%

    30 November, Thursday

    Time Temperature Precipitation Wind Pressure Humidity
    00:00 +19°C° 0 mm 0 mps 744 mmHg 48%
    01:00 +18°C° 0 mm 0 mps 744 mmHg 49%
    02:00 +20°C° 0 mm 1 mps 744 mmHg 50%
    03:00 +20°C° 0 mm 1 mps 744 mmHg 51%
    04:00 +19°C° 0 mm 1 mps 744 mmHg 52%
    05:00 +19°C° 0 mm 1 mps 744 mmHg 54%
    06:00 +20°C° 0 mm 1 mps 745 mmHg 51%
    07:00 +22°C° 0 mm 1 mps 746 mmHg 48%
    08:00 +23°C° 0 mm 1 mps 746 mmHg 45%
    09:00 +26°C° 0 mm 1 mps 746 mmHg 41%
    10:00 +28°C° 0 mm 1 mps 746 mmHg 36%
    11:00 +31°C° 0 mm 1 mps 745 mmHg 31%
    12:00 +32°C° 0 mm 1 mps 745 mmHg 29%
    13:00 +32°C° 0 mm 1 mps 744 mmHg 27%
    14:00 +33°C° 0 mm 1 mps 743 mmHg 26%
    15:00 +30°C° 0 mm 1 mps 743 mmHg 30%
    16:00 +28°C° 0 mm 1 mps 743 mmHg 34%
    17:00 +26°C° 0 mm 1 mps 743 mmHg 38%
    18:00 +25°C° 0 mm 1 mps 744 mmHg 39%
    19:00 +24°C° 0 mm 1 mps 744 mmHg 39%
    20:00 +23°C° 0 mm 1 mps 745 mmHg 40%
    21:00 +23°C° 0 mm 1 mps 745 mmHg 41%
    22:00 +22°C° 0 mm 1 mps 745 mmHg 42%
    23:00 +22°C° 0 mm 1 mps 745 mmHg 43%
    Show more